When you browse on this site, cookies collect data to enhance your experience and personalize the content and advertising you see.
Visit our Privacy Policy to learn more. By continuing to use the site, you agree to this use of cookies and data.
  • In Lithuania
  • List of Countries
  • For 7 days
  • Water Temperature
  • Weather Map
  • Weather Widgets
  • user-avatar
    Login

    Hourly Weather Mayrhofen

    Today, 14 December, Saturday

    Time Temperature Precipitation Wind Pressure Humidity
    00:00 -9°C° 0 mm 2 mps 598 mmHg 80%
    01:00 -9°C° 0 mm 2 mps 599 mmHg 78%
    02:00 -9°C° 0 mm 2 mps 599 mmHg 74%
    03:00 -9°C° 0 mm 2 mps 599 mmHg 70%
    04:00 -9°C° 0 mm 2 mps 599 mmHg 66%
    05:00 -8°C° 0.1 mm 2 mps 599 mmHg 68%
    06:00 -7°C° 0.1 mm 2 mps 600 mmHg 69%
    07:00 -7°C° 0.1 mm 2 mps 600 mmHg 71%
    08:00 -6°C° 0.1 mm 2 mps 601 mmHg 72%
    09:00 -5°C° 0.1 mm 2 mps 602 mmHg 73%
    10:00 -4°C° 0.1 mm 2 mps 603 mmHg 74%
    11:00 -3°C° 0.1 mm 2 mps 604 mmHg 75%
    12:00 0°C° 0.1 mm 1 mps 604 mmHg 77%
    13:00 0°C° 0.1 mm 1 mps 605 mmHg 78%
    14:00 0°C° 0 mm 1 mps 605 mmHg 80%
    15:00 -1°C° 0 mm 1 mps 606 mmHg 82%
    16:00 -2°C° 0 mm 1 mps 606 mmHg 84%
    17:00 -3°C° 0 mm 1 mps 606 mmHg 78%
    18:00 -3°C° 0 mm 1 mps 607 mmHg 73%
    19:00 -3°C° 0 mm 1 mps 607 mmHg 67%
    20:00 -5°C° 0 mm 2 mps 608 mmHg 63%
    21:00 -5°C° 0 mm 2 mps 608 mmHg 59%
    22:00 -5°C° 0 mm 2 mps 609 mmHg 55%
    23:00 -5°C° 0 mm 2 mps 609 mmHg 55%

    Tomorrow, 15 December, Sunday

    Time Temperature Precipitation Wind Pressure Humidity
    00:00 -5°C° 0 mm 2 mps 609 mmHg 54%
    01:00 -5°C° 0 mm 2 mps 609 mmHg 54%
    02:00 -5°C° 0 mm 2 mps 609 mmHg 53%
    03:00 -5°C° 0 mm 2 mps 609 mmHg 53%
    04:00 -5°C° 0 mm 2 mps 609 mmHg 52%
    05:00 -5°C° 0 mm 2 mps 609 mmHg 53%
    06:00 -5°C° 0 mm 2 mps 609 mmHg 54%
    07:00 -5°C° 0 mm 2 mps 609 mmHg 55%
    08:00 -4°C° 0 mm 2 mps 610 mmHg 58%
    09:00 -3°C° 0 mm 2 mps 611 mmHg 61%
    10:00 -2°C° 0 mm 2 mps 611 mmHg 63%
    11:00 -2°C° 0 mm 2 mps 611 mmHg 66%
    12:00 -1°C° 0 mm 2 mps 611 mmHg 69%
    13:00 +1°C° 0 mm 2 mps 612 mmHg 72%
    14:00 -1°C° 0 mm 2 mps 611 mmHg 74%
    15:00 -2°C° 0 mm 2 mps 611 mmHg 77%
    16:00 -4°C° 0 mm 2 mps 611 mmHg 79%
    17:00 -4°C° 0 mm 2 mps 611 mmHg 79%
    18:00 -5°C° 0 mm 2 mps 612 mmHg 80%
    19:00 -5°C° 0 mm 2 mps 612 mmHg 80%
    20:00 -5°C° 0 mm 2 mps 612 mmHg 82%
    21:00 -6°C° 0 mm 3 mps 612 mmHg 84%
    22:00 -6°C° 0 mm 3 mps 612 mmHg 86%
    23:00 -6°C° 0 mm 3 mps 613 mmHg 87%

    Day after tomorrow, 16 December, Monday

    Time Temperature Precipitation Wind Pressure Humidity
    00:00 -6°C° 0 mm 3 mps 613 mmHg 88%
    01:00 -5°C° 0 mm 3 mps 613 mmHg 89%
    02:00 -5°C° 0 mm 3 mps 613 mmHg 89%
    03:00 -5°C° 0 mm 3 mps 613 mmHg 89%
    04:00 -5°C° 0 mm 3 mps 613 mmHg 89%
    05:00 -4°C° 0 mm 3 mps 613 mmHg 89%
    06:00 -4°C° 0 mm 4 mps 613 mmHg 89%
    07:00 -4°C° 0 mm 4 mps 613 mmHg 89%
    08:00 -3°C° 0 mm 4 mps 613 mmHg 89%
    09:00 -3°C° 0 mm 4 mps 614 mmHg 88%
    10:00 -2°C° 0 mm 4 mps 614 mmHg 87%
    11:00 -2°C° 0 mm 4 mps 614 mmHg 87%
    12:00 -1°C° 0 mm 5 mps 614 mmHg 87%
    13:00 -1°C° 0 mm 5 mps 614 mmHg 86%
    14:00 -1°C° 0 mm 5 mps 614 mmHg 87%
    15:00 -2°C° 0 mm 5 mps 613 mmHg 88%
    16:00 -2°C° 0 mm 5 mps 613 mmHg 89%
    17:00 -2°C° 0 mm 5 mps 613 mmHg 89%
    18:00 -2°C° 0 mm 5 mps 613 mmHg 89%
    19:00 -2°C° 0 mm 5 mps 613 mmHg 89%
    20:00 -2°C° 0 mm 5 mps 613 mmHg 89%
    21:00 -2°C° 0 mm 5 mps 613 mmHg 89%
    22:00 -2°C° 0 mm 5 mps 613 mmHg 90%
    23:00 -2°C° 0 mm 4 mps 613 mmHg 90%

    17 December, Tuesday

    Time Temperature Precipitation Wind Pressure Humidity
    00:00 -2°C° 0 mm 4 mps 613 mmHg 89%
    01:00 -2°C° 0 mm 4 mps 613 mmHg 89%
    02:00 -2°C° 0.1 mm 4 mps 613 mmHg 90%
    03:00 -2°C° 0.1 mm 4 mps 612 mmHg 90%
    04:00 -2°C° 0.1 mm 4 mps 612 mmHg 90%
    05:00 -2°C° 0.2 mm 4 mps 612 mmHg 90%
    06:00 -1°C° 0.2 mm 3 mps 612 mmHg 91%
    07:00 -1°C° 0.2 mm 3 mps 612 mmHg 91%
    08:00 -1°C° 0.1 mm 3 mps 613 mmHg 91%
    09:00 0°C° 0.1 mm 3 mps 613 mmHg 92%
    10:00 0°C° 0.1 mm 3 mps 613 mmHg 92%
    11:00 0°C° 0.1 mm 4 mps 613 mmHg 93%
    12:00 0°C° 0.1 mm 4 mps 613 mmHg 93%
    13:00 0°C° 0.1 mm 4 mps 613 mmHg 93%
    14:00 0°C° 0.1 mm 4 mps 613 mmHg 94%
    15:00 0°C° 0.1 mm 4 mps 613 mmHg 94%
    16:00 -1°C° 0.1 mm 4 mps 613 mmHg 94%
    17:00 -1°C° 0.1 mm 4 mps 613 mmHg 94%
    18:00 -1°C° 0.1 mm 4 mps 613 mmHg 94%
    19:00 -1°C° 0.1 mm 4 mps 613 mmHg 93%
    20:00 -1°C° 0.1 mm 4 mps 613 mmHg 94%
    21:00 -1°C° 0.1 mm 4 mps 613 mmHg 94%
    22:00 -1°C° 0.1 mm 4 mps 613 mmHg 94%
    23:00 0°C° 0.1 mm 3 mps 613 mmHg 94%

    18 December, Wednesday

    Time Temperature Precipitation Wind Pressure Humidity
    00:00 0°C° 0.1 mm 3 mps 614 mmHg 94%
    01:00 0°C° 0.1 mm 3 mps 614 mmHg 94%
    02:00 0°C° 0.1 mm 3 mps 614 mmHg 94%
    03:00 0°C° 0.1 mm 3 mps 614 mmHg 94%
    04:00 0°C° 0.1 mm 3 mps 614 mmHg 94%
    05:00 0°C° 0.1 mm 3 mps 614 mmHg 94%
    06:00 0°C° 0.1 mm 3 mps 614 mmHg 94%
    07:00 0°C° 0.1 mm 3 mps 614 mmHg 94%
    08:00 0°C° 0.1 mm 3 mps 614 mmHg 94%
    09:00 +1°C° 0.1 mm 3 mps 614 mmHg 94%
    10:00 +1°C° 0.1 mm 3 mps 615 mmHg 94%
    11:00 +1°C° 0.1 mm 3 mps 614 mmHg 94%
    12:00 +1°C° 0.1 mm 3 mps 614 mmHg 94%
    13:00 +2°C° 0.1 mm 3 mps 614 mmHg 94%
    14:00 +1°C° 0 mm 3 mps 614 mmHg 94%
    15:00 +1°C° 0 mm 3 mps 614 mmHg 94%
    16:00 +1°C° 0 mm 3 mps 614 mmHg 93%
    17:00 +1°C° 0 mm 3 mps 614 mmHg 93%
    18:00 0°C° 0 mm 3 mps 614 mmHg 93%
    19:00 0°C° 0 mm 3 mps 613 mmHg 92%
    20:00 0°C° 0 mm 3 mps 613 mmHg 92%
    21:00 0°C° 0 mm 3 mps 613 mmHg 91%
    22:00 0°C° 0 mm 3 mps 613 mmHg 91%
    23:00 0°C° 0 mm 3 mps 613 mmHg 90%

    19 December, Thursday

    Time Temperature Precipitation Wind Pressure Humidity
    00:00 0°C° 0 mm 3 mps 613 mmHg 90%
    01:00 0°C° 0 mm 3 mps 612 mmHg 90%
    02:00 +1°C° 0.1 mm 2 mps 612 mmHg 90%
    03:00 +1°C° 0.1 mm 2 mps 612 mmHg 90%
    04:00 +1°C° 0.1 mm 2 mps 612 mmHg 89%
    05:00 -1°C° 0.1 mm 2 mps 611 mmHg 90%
    06:00 -1°C° 0.1 mm 2 mps 611 mmHg 91%
    07:00 +1°C° 0.1 mm 1 mps 611 mmHg 91%
    08:00 +2°C° 0 mm 1 mps 611 mmHg 91%
    09:00 +2°C° 0 mm 1 mps 611 mmHg 90%
    10:00 +2°C° 0 mm 1 mps 611 mmHg 90%
    11:00 +3°C° 0 mm 1 mps 611 mmHg 90%
    12:00 +3°C° 0 mm 1 mps 611 mmHg 91%
    13:00 +4°C° 0 mm 1 mps 611 mmHg 91%
    14:00 +2°C° 0 mm 2 mps 610 mmHg 91%
    15:00 +1°C° 0 mm 2 mps 610 mmHg 92%
    16:00 +1°C° 0 mm 2 mps 610 mmHg 92%
    17:00 +1°C° 0 mm 2 mps 609 mmHg 92%
    18:00 -1°C° 0 mm 3 mps 609 mmHg 92%
    19:00 -1°C° 0 mm 3 mps 609 mmHg 92%
    20:00 -1°C° 0.1 mm 3 mps 609 mmHg 92%
    21:00 -1°C° 0.1 mm 3 mps 608 mmHg 92%
    22:00 -1°C° 0.1 mm 3 mps 608 mmHg 92%
    23:00 -2°C° 0.1 mm 4 mps 608 mmHg 92%
    Show more